Volver al catálogo

STARLINK-5164

ActivoComunicacionesVLEO
NORAD 54178·PAYLOAD·🇺🇸 United States

Lanzado Oct 28, 2022 desde Vandenberg Space Force Base

Loading…

Próximos Pases (próximas 24 horas)

TLE

ActualizadoSource: CelesTrak SupGP

Época: Sep 15, 2026, 02:25 UTC

1 54178C 22141X   26258.10118056 -.00036818  00000+0 -10880-2 0  2584
2 54178  53.1582 218.9570 0001313  89.1781 316.9419 15.34404083    11

Sigue STARLINK-5164 en tiempo real con AllMySat

Download on the App Store